Location: Unspecified
(48.7670°N, 0.0000°E)
Time: 04:22:14
(UTC+00:00)

Vanguard 2 Rocket - Pass Details

Date: 03 October 2020
Orbit: 554 x 3326 km, 32.9° (Epoch: 26 October)

Event Time Altitude Azimuth Distance (km) Brightness Sun altitude
Exits shadow 00:35:13 29° 126° (SE) 4,534 10.1 -44.2°
Drops below altitude 10° 00:46:44 10° 95° (E) 6,281 11.2 -43.6°
Sets 00:52:27 0° 88° (E) 7,298 11.8 -43.3°
